www.pogodaiklimat.ru

Погода и климат >> Архив погоды >> Франция >> Ренн


ПОГОДА в Ренне

  • Прогноз погоды в Ренне
  • Монитор погоды в Ренне

АРХИВ ПОГОДЫ в Ренне

Время (UTC), дата Ветер
(напр.,м/с)
 
Видим.   Явления Облачность Т
(С)
Тd
(С)
f
(%)
Тe
(С)
Тes
(С)
Комфортность P
(гПа)
Po
(гПа)
Тmin
(С)
Tmax
(С)
R
(мм)
R24
(мм)
S
(см)
10 17.06 Ю 1 19 км н/о +20.1 +11.6 58 +23 +23 комфорт 1019.1 1014.7
11 17.06 Ю 1 18 км н/о +21.4 +10.5 50 +23 +23 комфорт 1018.6 1014.3
12 17.06 ЮВ 2
{5}
50 км н/о +22.3 +11.7 51 +25 +25 комфорт 1018.2 1013.9 0
13 17.06 ЮВ 1 45 км н/о +23.4 +12.1 49 +26 +26 жарко 1017.8 1013.5
14 17.06 ЮЗ 2 19 км н/о +23.6 +12.3 49 +25 +25 комфорт 1017.3 1013.0
15 17.06 Ю 2
{6}
11 км н/о +24.7 +12.9 48 +27 +27 жарко 1016.7 1012.4 0
16 17.06 ЮЗ 2
{5}
19 км 9/9 1500 м
[]
+24.8 +13.7 50 +27 +28 жарко 1016.3 1012.0
17 17.06 СЗ 1 45 км н/о +24.7 +12.3 46 +26 +26 жарко 1015.8 1011.5
18 17.06 СЗ 3
{5}
35 км н/о +24.3 +13.5 51 +27 +27 жарко 1015.5 1011.2 +12.5 +25.2 0
19 17.06 СЗ 2 30 км н/о +22.9 +13.1 54 +26 +26 жарко 1015.4 1011.1
20 17.06 С 2 40 км н/о +20.7 +14.1 66 +24 +24 комфорт 1015.4 1011.1
21 17.06 С 3
{5}
35 км н/о +18.9 +14.6 76 +20 +20 1015.7 1011.3 0
22 17.06 С 2 30 км н/о +17.2 +13.3 78 +18 +18 1015.8 1011.4
23 17.06 С 1 30 км н/о +16.8 +13.5 81 +18 +18 1015.5 1011.1
00 18.06 С 2
{5}
35 км 10/0
[]
+16.7 +13.8 83 +17 +17 1015.0 1010.6 0
01 18.06 СВ 1 28 км 10/10
[]
+16.5 +13.8 84 +17 +17 1014.2 1009.8
02 18.06 СВ 1 30 км 10/10
[]
+16.5 +13.6 83 +17 +17 1013.4 1009.0
03 18.06 З 2
{3}
20 км 9/0
[]
+14.8 +13.7 93 +14 +14 1013.6 1009.2 0
04 18.06 С 1 29 км 10/10
[]
+15.5 +13.5 88 +16 +16 1013.1 1008.7
05 18.06 С 1 29 км 10/10
[]
+15.9 +13.4 85 +17 +17 1012.7 1008.3
06 18.06 СВ 3
{4}
26 км 10/0
[]
+16.8 +13.9 83 +17 +18 1012.2 1007.8 +14.8 +24.3 0
07 18.06 С 1 18 км 10/10
[]
+17.3 +14.4 83 +18 +18 1011.9 1007.5
08 18.06 С 1 28 км 9/9
[]
+18.1 +15.0 82 +20 +21 1011.3 1007.0
09 18.06 В 3
{5}
50 км 10/0
[]
+19.5 +15.2 76 +22 +27 комфорт 1010.7 1006.4 0
10 18.06 З 3 10 км слаб. дождь 10/4 660 м
[]
+16.7 +15.4 92 +17 +21 1013.2 1008.8 0.2
11 18.06 С 3 13 км н/о +18.9 +16.5 86 +21 +21 комфорт 1010.6 1006.3 0.2
12 18.06 СВ 4
{8}
19 км н/о +21.5 +16.7 74 +25 +25 комфорт 1010.1 1005.8 0.4 0
13 18.06 СВ 3 26 км н/о +23.8 +15.6 60 +27 +27 жарко 1009.5 1005.2
14 18.06 В 2 25 км н/о +25.5 +17.4 61 +30 +30 душно 1008.9 1004.7
15 18.06 В 3
{9}
26 км н/о +26.4 +17.7 59 +31 +31 душно 1008.4 1004.2 0
16 18.06 ЮВ 1 35 км н/о +27.3 +16.9 53 +31 +31 душно 1007.9 1003.7
17 18.06 СЗ 2 30 км н/о +27.1 +17.6 56 +31 +31 душно 1007.5 1003.3
18 18.06 СЗ 5
{8}
30 км н/о +24.7 +18.9 70 +30 +30 очень
душно
1007.3 1003.1 +16.6 +28.1 0
19 18.06 СЗ 3 30 км н/о +22.8 +18.3 76 +28 +28 душно 1007.4 1003.1
20 18.06 СЗ 2 19 км н/о +19.7 +17.5 87 +23 +23 комфорт 1007.8 1003.5
21 18.06 СЗ 3
{7}
14 км н/о +18.2 +16.4 89 +19 +19 1008.4 1004.1 0
22 18.06 З 2 10 км н/о +16.5 +15.7 95 +17 +17 1008.1 1003.7
23 18.06 СЗ 3 11 км 9/4 1050 м
[]
+16.6 +15.6 94 +16 +16 1007.8 1003.4
00 19.06 ЮЗ 2
{6}
7000 м н/о +15.1 +14.8 98 +15 +15 1008.0 1003.6 0
01 19.06 З 2 6000 м 10/10
[]
+15.4 +15.1 98 +15 +15 1008.1 1003.7
02 19.06 ЮЗ 1 5000 м 9/5 210 м
[]
+14.8 +14.6 99 +15 +15 1008.1 1003.7 0.0
03 19.06 ЮЗ 2
{3}
4500 м дымка 9/9 300 м
[]
+14.8 +14.8 100 +15 +15 1007.9 1003.5 0.0 0
04 19.06 ЮЗ 1 4500 м дымка 10/10 360 м
[]
+15.3 +15.3 100 +16 +16 1008.2 1003.8 0.4
05 19.06 СЗ 1 6000 м 10/10 240 м
[]
+15.5 +15.3 99 +16 +16 1008.1 1003.7
06 19.06 ЮВ 2
{3}
6000 м 10/10 300 м
[]
+16.3 +16.0 98 +17 +17 1008.5 1004.1 +14.2 +24.7 0.4 0
07 19.06 Ю 1 8000 м 10/10 400 м
[]
+17.3 +16.2 93 +18 +18 1008.9 1004.6
08 19.06 Ю 1 15 км 10/10 400 м
[]
+18.6 +16.4 87 +21 +21 комфорт 1008.7 1004.4
09 19.06 Ю 6
{8}
22 км 10/10 300 м
[]
+18.6 +15.7 83 +19 +19 1008.8 1004.5 0
10 19.06 Ю 2 16 км 10/10 330 м
[]
+17.7 +16.2 91 +18 +18 1009.2 1004.9
11 19.06 СЗ 3 2100 м слаб. дождь 10/10 270 м
[]
+16.6 +16.1 97 +16 +16 1009.8 1005.4 0.6
12 19.06 СЗ 4
{8}
11 км 10/10 300 м
[]
+18.6 +16.2 86 +19 +19 1010.4 1006.1 0.8 0
13 19.06 З 2 28 км 10/5 450 м
[]
+20.2 +16.2 78 +24 +29 комфорт 1010.7 1006.4
14 19.06 СЗ 2 35 км 10/9 600 м
[]
+19.5 +16.0 80 +22 +23 комфорт 1010.7 1006.4
15 19.06 З 2
{6}
18 км 10/10 600 м
[]
+20.2 +15.4 74 +23 +23 комфорт 1010.8 1006.5 0
16 19.06 Ю 2 5000 м 10/6 870 м
[]
+18.0 +16.0 88 +19 +20 1010.8 1006.5
17 19.06 З 2 1500 м сильн. дождь 10/9 840 м
[]
+17.1 +16.6 97 +18 +18 1011.3 1006.9 3
18 19.06 СВ 2
{3}
18 км 10/10 100 м
[]
+17.1 +16.8 98 +18 +18 1011.6 1007.2 +16.3 +20.7 4 0
19 19.06 С 2 4800 м дымка 10/10 180 м
[]
+15.5 +15.3 99 +16 +16 1012.2 1007.8 3
20 19.06 С 2 35 км 10/10 270 м
[]
+14.8 +14.0 95 +14 +14 1012.9 1008.5 0.2
21 19.06 С 3
{5}
19 км 10/10 1000 м
[]
+14.5 +13.7 95 +14 +14 1013.6 1009.2 3
22 19.06 С 1 40 км 10/10 1230 м
[]
+14.1 +13.1 94 +14 +14 1013.9 1009.5
23 19.06 СЗ 1 35 км 10/10 1440 м
[]
+14.0 +13.2 95 +14 +14 1014.3 1009.9
00 20.06 СЗ 4
{7}
12 км 8/8 1500 м
[]
+13.5 +11.9 90 +12 +12 1014.6 1010.2 0
01 20.06 З 2 19 км 10/6 500 м
[]
+12.7 +11.6 93 +12 +12 1015.0 1010.5
02 20.06 З 1 13 км н/о +11.4 +10.9 97 +11 +11 1015.2 1010.7
03 20.06 З 3
{4}
11 км н/о +10.3 +10.1 99 +8 +8 1015.3 1010.8 0
04 20.06 ЮЗ 1 7000 м н/о +10.2 +10.2 100 +10 +10 1015.7 1011.2
05 20.06 ЮЗ 1 11 км н/о +10.6 +10.6 100 +10 +10 1016.3 1011.8
06 20.06 З 3
{5}
19 км н/о +12.3 +11.2 93 +11 +11 1016.6 1012.1 +9.9 +17.1 3 0
07 20.06 З 2 27 км н/о +14.2 +12.2 88 +14 +14 1016.8 1012.4
08 20.06 З 2 18 км н/о +15.4 +11.8 79 +15 +15 1016.9 1012.5
09 20.06 СЗ 3
{7}
45 км н/о +16.7 +11.8 73 +16 +16 1017.1 1012.7 0
10 20.06 З 2 35 км 8/6 900 м
[]
+17.0 +9.2 60 +18 +22 1017.1 1012.7
11 20.06 З 2 45 км н/о +18.3 +10.1 59 +19 +19 1017.4 1013.0
12 20.06 З 3
{9}
35 км н/о +19.7 +10.9 57 +21 +21 комфорт 1017.4 1013.0 0
13 20.06 З 2 45 км 8/1 1320 м
[]
+20.3 +10.7 54 +23 +33 комфорт 1017.2 1012.9
14 20.06 СЗ 3 45 км 10/4 1410 м
[]
+17.7 +10.6 63 +18 +22 1017.5 1013.1
15 20.06 З 4
{9}
45 км 9/9 1000 м
[]
+18.9 +9.7 55 +20 +20 1017.4 1013.0 0
16 20.06 С 1 45 км 9/8 1300 м
[]
+19.5 +10.8 57 +22 +23 комфорт 1017.5 1013.1
17 20.06 С 2 50 км 8/8 2000 м
[]
+19.0 +10.8 59 +20 +21 1017.7 1013.3
18 20.06 С 4
{7}
55 км н/о +17.5 +10.6 64 +17 +17 1017.6 1013.2 +12.3 +20.6 0
19 20.06 С 2 50 км 10/5 1080 м
[]
+17.5 +10.6 64 +18 +18 1017.9 1013.5
20 20.06 С 2 55 км 10/6 1320 м
[]
+15.8 +10.3 70 +16 +16 1018.5 1014.1
21 20.06 С 3
{7}
60 км 9/9 1500 м
[]
+14.9 +10.5 75 +14 +14 1019.1 1014.7 0
22 20.06 С 2 55 км 10/6 1470 м
[]
+14.5 +10.1 75 +14 +14 1019.6 1015.2
23 20.06 С 2 55 км 10/10 1500 м
[]
+14.1 +10.7 80 +14 +14 1020.2 1015.7
00 21.06 С 2
{4}
45 км 9/9 1500 м
[]
+13.2 +10.9 86 +12 +12 1020.2 1015.7 0
01 21.06 С 2 35 км н/о +12.1 +10.7 91 +11 +11 1020.0 1015.5
02 21.06 С 1 30 км н/о +11.8 +10.5 92 +12 +12 1020.3 1015.8
03 21.06 З 2
{3}
9000 м 8/0 2000 м
[]
+10.2 +10.0 99 +8 +8 1020.3 1015.8 0
04 21.06 СЗ 1 200 м туман н/о +10.2 +10.2 100 +10 +10 1020.4 1015.9
05 21.06 З 1 10 км 10/10 2000 м
[]
+10.1 +10.1 100 +9 +9 1020.7 1016.2
06 21.06 СЗ 2
{3}
20 км н/о +12.8 +12.0 95 +12 +12 1021.0 1016.5 +9.4 +18.3 0
07 21.06 СЗ 2 22 км н/о +14.7 +12.2 85 +15 +15 1021.2 1016.8
08 21.06 СЗ 2 27 км н/о +16.5 +11.6 73 +17 +17 1021.3 1016.9
09 21.06 СЗ 3
{7}
35 км н/о +17.1 +11.8 71 +17 +17 1021.4 1017.0 0
10 21.06 СЗ 2 45 км н/о +17.9 +10.5 62 +19 +19 1021.3 1016.9
11 21.06 СЗ 2 55 км н/о +18.4 +10.0 58 +19 +19 1021.3 1016.9
12 21.06 С 3
{7}
50 км 9/9 1000 м
[]
+20.0 +10.1 53 +22 +23 комфорт 1021.3 1016.9 0
13 21.06 С 2 19 км 9/3 1380 м
[]
+20.5 +8.8 47 +23 +30 комфорт 1021.1 1016.7
14 21.06 СЗ 2 45 км н/о +20.1 +8.4 47 +22 +22 комфорт 1021.0 1016.6
15 21.06 СЗ 3
{6}
50 км 10/10 1000 м
[]
+20.5 +9.4 49 +22 +22 комфорт 1020.9 1016.5 0
16 21.06 С 2 55 км 10/10 2000 м
[]
+19.9 +10.6 55 +22 +22 комфорт 1020.9 1016.5
17 21.06 С 2 45 км 9/9 2000 м
[]
+19.4 +10.9 58 +21 +22 комфорт 1020.9 1016.5
18 21.06 С 4
{8}
45 км 8/0 2000 м
[]
+19.1 +9.8 55 +20 +21 1021.0 1016.6 +12.8 +21.4 0
19 21.06 С 3 30 км н/о +18.2 +8.5 53 +19 +19 1021.4 1017.0
20 21.06 С 2 60 км н/о +16.0 +7.7 58 +16 +16 1021.7 1017.3
21 21.06 С 2
{6}
60 км н/о +14.1 +8.7 70 +14 +14 1022.2 1017.7 0
22 21.06 СЗ 2 60 км н/о +12.6 +10.0 84 +12 +12 1022.4 1017.9
23 21.06 СЗ 1 45 км н/о +12.0 +10.4 90 +12 +12 1022.2 1017.7
00 22.06 СЗ 1
{3}
19 км н/о +10.8 +10.2 96 +10 +10 1022.0 1017.5 0
01 22.06 З 1 11 км н/о +9.9 +9.9 100 +10 +10 1021.7 1017.2
02 22.06 З 1 3600 м дымка н/о +9.8 +9.8 100 +9 +9 1021.3 1016.8
03 22.06 СЗ 1
{3}
500 м туман н/о +9.3 +9.3 100 +8 +8 1021.1 1016.6 0
04 22.06 С 1 1500 м дымка н/о +9.9 +9.9 100 +10 +10 1020.7 1016.2
05 22.06 С 1 13 км н/о +10.6 +10.6 100 +11 +11 1020.8 1016.3
06 22.06 В 2
{4}
21 км н/о +13.6 +11.1 85 +13 +13 1020.7 1016.2 +8.8 +19.5 0
07 22.06 В 2 30 км н/о +15.9 +11.1 73 +16 +16 1020.4 1016.0
08 22.06 В 3 30 км н/о +18.2 +11.5 65 +19 +19 1020.2 1015.8
09 22.06 В 4
{8}
27 км н/о +20.2 +11.1 56 +22 +22 комфорт 1019.7 1015.3 0
10 22.06 В 3 27 км н/о +21.3 +11.3 53 +23 +23 комфорт 1019.3 1015.0
11 22.06 ЮВ 2 55 км н/о +22.0 +10.5 48 +24 +24 комфорт 1018.9 1014.6
12 22.06 В 4
{9}
35 км н/о +22.5 +10.6 47 +24 +24 комфорт 1018.5 1014.2 0
13 22.06 В 3 50 км н/о +23.3 +10.0 43 +25 +25 комфорт 1018.1 1013.8
14 22.06 В 3 35 км 9/9 1500 м
[]
+23.9 +9.8 41 +25 +26 комфорт 1017.6 1013.3
15 22.06 В 5
{10}
35 км н/о +24.1 +9.3 39 +25 +25 комфорт 1017.1 1012.8 0
16 22.06 В 3 30 км н/о +24.1 +10.7 43 +25 +25 комфорт 1016.6 1012.3
17 22.06 В 2 45 км н/о +23.5 +10.5 44 +25 +25 комфорт 1016.3 1012.0
18 22.06 В 5
{8}
50 км н/о +22.7 +9.8 44 +24 +24 комфорт 1015.9 1011.6 +13.6 +24.6 0
19 22.06 В 2 60 км н/о +22.1 +11.2 50 +24 +24 комфорт 1015.9 1011.6
20 22.06 В 2 55 км н/о +20.2 +10.3 53 +22 +22 комфорт 1015.8 1011.5
21 22.06 В 3
{4}
60 км н/о +18.7 +10.5 59 +19 +19 1016.1 1011.7 0
22 22.06 В 2 60 км н/о +18.7 +10.8 60 +20 +20 1015.9 1011.5
23 22.06 В 2 60 км н/о +18.1 +10.7 62 +19 +19 1015.7 1011.3
00 23.06 В 4
{5}
50 км 10/0
[]
+17.8 +10.9 64 +18 +18 1015.3 1010.9 0
01 23.06 В 2 55 км 10/10
[]
+16.9 +11.4 70 +17 +17 1014.9 1010.5
02 23.06 В 2 55 км н/о +16.2 +11.8 75 +16 +16 1014.3 1009.9
03 23.06 В 2
{5}
50 км 9/0
[]
+15.7 +11.9 78 +16 +16 1014.1 1009.7 0
04 23.06 В 2 40 км 10/10
[]
+15.5 +12.4 82 +16 +16 1013.6 1009.2
05 23.06 В 2 30 км 10/10
[]
+16.4 +13.1 81 +17 +17 1013.7 1009.3
06 23.06 В 4
{7}
29 км 9/0
[]
+17.1 +14.0 82 +17 +17 1013.3 1008.9 +15.3 +22.9 0
07 23.06 В 2 28 км 10/10
[]
+17.8 +14.7 82 +19 +19 1013.7 1009.3
08 23.06 В 2 35 км 10/10
[]
+19.4 +15.1 76 +22 +22 комфорт 1013.4 1009.1
09 23.06 В 3
{7}
29 км 9/0
[]
+20.0 +15.4 75 +23 +28 комфорт 1013.5 1009.2 0
10 23.06 В 2 30 км 8/8
[]
+22.2 +16.2 69 +26 +29 душно 1012.2 1007.9
11 23.06 В 3 30 км 10/10
[]
+23.5 +16.3 64 +27 +27 душно 1012.2 1007.9
12 23.06 В 5
{8}
29 км н/о +25.3 +16.7 59 +29 +29 душно 1011.6 1007.4 0
13 23.06 В 3 26 км 9/3 1320 м
[]
+25.7 +16.5 57 +29 +36 душно 1011.6 1007.4
14 23.06 В 2 35 км 8/8
[]
+26.3 +17.1 57 +30 +33 душно 1011.1 1006.9
15 23.06 В 4
{8}
45 км н/о +27.6 +17.2 53 +32 +32 очень
душно
1010.7 1006.5 0
16 23.06 В 3 45 км 8/8
[]
+28.0 +16.6 50 +32 +33 душно 1010.1 1005.9
17 23.06 В 2 45 км н/о +28.6 +16.8 49 +32 +32 душно 1009.7 1005.5
18 23.06 В 5
{10}
40 км 8/0
[]
+28.2 +16.1 48 +31 +32 душно 1009.8 1005.6 +17.1 +29.3 0
19 23.06 ЮЗ 3 27 км н/о +24.8 +15.4 56 +28 +28 жарко 1011.2 1007.0
20 23.06 Ю 1 55 км н/о +22.5 +15.6 65 +26 +26 жарко 1011.7 1007.4
21 23.06 Ю 3
{6}
35 км 10/0
[]
+21.0 +15.5 71 +25 +25 комфорт 1012.5 1008.2 0
22 23.06 Ю 2 50 км 10/10
[]
+20.0 +15.8 77 +23 +23 комфорт 1013.1 1008.8
23 23.06 Ю 2 45 км н/о +18.9 +15.9 83 +21 +21 комфорт 1013.9 1009.6
00 24.06 Ю 3
{5}
35 км 9/0
[]
+17.6 +15.8 89 +18 +18 1014.0 1009.6 0
01 24.06 Ю 1 29 км н/о +16.7 +15.9 95 +18 +18 1014.1 1009.7
02 24.06 Ю 2 30 км 10/10
[]
+17.3 +16.0 92 +18 +18 1015.2 1010.8
03 24.06 ЮЗ 1
{5}
13 км слаб. дождь 10/0
[]
+16.8 +15.8 94 +18 +18 1015.2 1010.8 0.0 0
05 24.06 Ю 1 6000 м слаб. дождь 10/10 1500 м
[]
+16.2 +16.2 100 +18 +18 1015.8 1011.4 0.6
06 24.06 СЗ 2
{4}
5000 м слаб. дождь 10/10 1500 м
[]
+16.5 +16.5 100 +17 +17 1015.6 1011.2 +16.2 +28.2 2 0
07 24.06 СЗ 2 8000 м слаб. дождь 10/1 1230 м
[]
+15.9 +15.1 95 +16 +18 1016.1 1011.7 2
08 24.06 ЮВ 1 3200 м дождь 10/10 1500 м
[]
+15.8 +15.3 97 +16 +16 1017.2 1012.8 2

 

Местоположение метеостанции Ренн (Франция): широта 48.07 долгота -1.73 высота над уровнем моря 43 м.

В архиве по умолчанию представлена погода в Ренне за последнюю неделю. Архивные данные за месяц целиком и за предыдущие месяцы, начиная с января 2011 года, Вы можете получить, выбрав интересующий диапазон дат из раскрывающегося списка и нажав кнопку "Ввод!".


*Определитесь, кто Вы:
робот инопланетянин человек

Внимание! Время в таблицах - всемирное. Для получения местного времени необходимо прибавить поправку, которая равна 1 ч.

Смотрите также архив погоды в соседних городах и на ближайших метеорологических станциях:

Погода в Динаре (Франция) (62 км)
Погода в Лавале (Франция) (74 км)
Погода на Пуэнт-дю-Оке (Франция) (85 км)
Погода в Сен-Назере (Франция) (90 км)
Погода в Сен-Бриё аэропорту (Франция) (97 км)
Погода на Шемулене (Франция) (103 км)
Погода в Нанте (Франция) (103 км)
Погода в Бокузе (Франция) (107 км)
Погода в Марсе (Франция) (120 км)
Погода в Лорьене (Франция) (132 км)

Пояснения к столбцам:

Ветер - указаны скорость ветра в м/с - средняя за 10 мин, порывы в срок и между сроками (в фигурных скобках) и направление, откуда дует ветер: С - северный, СВ - северо-восточный, В - восточный, ЮВ - юго-восточный, Ю - южный, ЮЗ - юго-западный, З - западный, СЗ - северо-западный.
Видимость - горизонтальная дальность видимости в метрах или километрах. При видимости от 1 до 10 км при отсутствии осадков обычно наблюдается дымка, при ухудшении видимости до 1 км и менее - туман. В сухую погоду видимость может ухудшаться дымом, пылью или мглою.
Явления - указаны атмосферные явления, наблюдавшиеся в срок или в последний час перед сроком; фигурными скобками обозначены явления, наблюдавшиеся между сроками (за 1-3 часа до срока); квадратными скобками обозначены град или гололедные отложения с указанием их диаметра в мм.
Облачность - указаны через наклонную черту общая и нижняя облачность в баллах и высота нижней границы облаков в метрах; квадратными скобками обозначены формы облаков: Ci - перистые, Cs - перисто-слоистые, Cc - перисто-кучевые, Ac - высококучевые, As - высокослоистые, Sc - слоисто-кучевые, Ns - слоисто-дождевые, Cu - кучевые, Cb - кучево-дождевые. Подробнее классификацию облаков см. в Атласе облаков (PDF).
T - Температура воздуха - температура, измеренная на высоте 2 м над землей.
Td - Температура точки росы - температура, при понижении до которой содержащийся в воздухе водяной пар достигнет насыщения.
f - Относительная влажность воздуха - влажноcть воздуха, измеренная на высоте 2 м над землей.
Te - Эффективная температура - температура, которую ощущает одетый по сезону человек в тени. Характеристика душности погоды. При расчете учитывается влияние влажности воздуха и скорости ветра на теплоощущения человека.
Tes - Эффективная температура на солнце - температура, которую ощущает человек, с поправкой на солнечный нагрев. Характеристика знойности погоды. Зависит от высоты солнца над горизонтом, облачности и скорости ветра. Ночью, в пасмурную погоду, а также при ветре 12 м/с и более поправка равна нулю.
P - Атмосферное давление - приведенное к уровню моря атмосферное давление.
Po - Атмосферное давление - измеренное на уровне метеостанции атмосферное давление.
Tmin - Минимальная температура - минимум температуры воздуха на высоте 2 м над землей.
Tmax - Максимальная температура - максимум температуры воздуха на высоте 2 м над землей.
R - Количество осадков - Количество выпавших осадков за период времени, мм. При наведении курсора мыши на число - период времени, за который выпало указанное количество осадков.
R24 - Количество осадков - Количество выпавших осадков за 24 часа, мм.
S - Снежный покров - Высота снежного покрова, см. При наведении курсора мыши на число - состояние снежного покрова и степень покрытия местности в баллах.